Probability
10 10 6 6 6 6 6 10 6 6 6 3 3 3 0 0 0 0 0 0 0 0 0 0 0 0 0 0 0 0 0 0 0 0 0 0 0 0 0 0 0 0 0
10 6 6 6 6 6 10 10 6 3 6 6 3 0 0 0 0 0 0 0 0 0 0 0 0 0 0 0 0 0 0 0 0 0 0 0 0 0 0 0 0 0 0
6 6 6 6 6 6 6 0 0 3 6 6 6 0 0 3 0 0 0 0 0 0 0 0 0 0 0 0 0 0 0 0 0 0 0 0 0 0 0 0 0 0 0
3 3 3 3 3 3 0 3 3 3 3 3 0 0 0 3 3 3 0 0 0 0 0 0 0 0 0 0 0 0 0 0 0 0 0 0 0 0 0 0 0 0 0
3 3 3 3 3 0 0 3 3 3 3 0 0 0 0 0 0 0 0 0 0 0 0 0 0 0 0 0 0 0 0 0 0 0 0 0 0 0 0 0 0 0 0
3 3 3 3 0 0 0 0 0 0 0 0 0 0 0 0 0 0 0 0 0 0 0 0 0 0 0 0 0 0 0 0 0 0 0 0 0 0 0 0 0 0 0
3 3 3 3 0 0 0 0 0 0 0 0 0 0 0 0 0 0 0 0 0 0 0 0 0 0 0 0 0 0 0 0 0 0 0 0 0 0 0 0 0 0 0
3 3 3 3 0 0 0 0 0 0 0 0 0 0 0 0 0 0 0 0 0 0 0 0 0 0 0 0 0 0 0 0 0 0 0 0 0 0 0 0 0 0 0
3 3 3 3 0 0 0 0 0 0 0 0 0 0 0 0 0 0 0 0 0 0 0 0 0 0 0 0 0 0 0 0 0 0 0 0 0 0 0 0 0 0 0
3 3 0 0 0 0 0 0 0 0 0 0 0 0 0 0 0 0 0 0 0 0 0 0 0 0 0 0 0 0 0 0 0 0 0 0 0 0 0 0 0 0 0
0 0 0 0 0 0 0 0 0 0 0 0 0 0 0 0 0 0 0 0 0 0 0 0 0 0 0 0 0 0 0 0 0 0 0 0 0 0 0 0 0 0 0
0 3 3 0 0 0 0 0 0 0 0 0 0 0 0 0 0 0 0 0 0 0 0 0 0 0 0 0 0 0 0 0 0 0 0 0 0 0 0 0 0 0 0
0 3 3 0 0 0 0 0 0 0 0 0 0 0 0 0 0 0 0 0 0 0 0 0 0 0 0 0 0 0 0 0 0 0 0 0 0 0 0 0 0 0 0
3 3 0 0 0 0 0 0 0 0 0 0 3 3 3 3 3 0 0 0 0 0 0 0 0 0 0 0 0 0 0 0 0 0 0 0 0 0 0 0 0 0 0
3 3 0 0 0 0 0 0 0 0 0 3 3 3 3 3 3 0 0 0 0 0 0 0 0 0 0 0 0 0 0 0 0 0 0 0 0 0 0 0 0 0 0
3 3 0 3 3 3 3 0 0 0 0 0 0 3 3 3 0 0 0 0 0 0 0 0 0 0 0 0 0 0 0 0 0 0 0 0 0 0 0 0 0 0 0
3 3 3 3 3 3 3 3 0 0 0 0 0 0 0 0 0 0 0 0 0 0 0 0 0 0 0 0 0 0 0 0 0 0 0 0 0 0 0 0 0 0 0
3 3 3 3 3 3 3 3 3 3 0 0 0 0 0 0 0 0 0 0 0 0 0 0 0 0 0 0 0 0 0 0 0 0 0 0 0 0 0 0 0 0 0
3 3 3 3 3 3 0 0 3 3 3 0 0 0 0 0 0 0 0 0 0 0 0 0 0 0 0 0 0 0 0 0 0 0 0 0 0 0 0 0 0 0 0
3 3 3 3 3 3 3 3 3 3 3 3 0 0 0 0 0 0 0 0 0 0 0 0 0 0 0 0 0 0 0 0 0 0 0 0 0 0 0 0 0 0 0
3 3 3 3 3 3 3 3 3 3 3 3 3 0 0 0 0 0 0 0 0 0 0 0 0 0 0 0 0 0 0 0 0 0 0 0 0 0 0 0 0 0 0
3 3 3 3 3 3 3 3 3 3 3 3 3 0 0 0 0 0 0 0 0 0 0 0 0 0 0 0 0 0 0 0 0 0 0 0 0 0 0 0 0 0 0
3 3 3 3 3 3 3 3 3 3 3 3 3 0 0 0 0 0 0 0 0 0 0 0 0 0 0 0 0 0 0 0 0 0 0 0 0 0 0 0 0 0 0
3 3 3 3 3 3 3 3 3 3 3 3 0 0 0 0 0 0 0 0 0 0 0 0 0 0 0 0 0 0 0 0 0 0 0 0 0 0 0 0 0 0 0
3 3 3 3 3 3 3 3 0 0 0 0 0 0 0 0 0 0 0 0 0 0 0 0 0 0 0 0 0 0 0 0 0 0 0 0 0 0 0 0 0 0 0
3 3 0 0 0 0 0 0 0 0 0 0 0 0 0 0 0 0 0 0 0 0 0 0 0 0 0 0 0 0 0 0 0 0 0 0 0 0 0 0 0 0 0
Height
5799 5797 5795 5793 5790 5788 5786 5784 5783 5781 5779 5777 5775 5773 5771 5769 5768 5767 5766 5764 5763 5762 5762 5761 5760 5760 5760 5760 5761 5761 5761 5761 5762 5763 5762 5762 5762 5762 5763 5763 5764 5764 5764
5792 5791 5788 5786 5784 5781 5779 5778 5776 5774 5772 5770 5769 5766 5764 5762 5761 5759 5758 5757 5755 5754 5753 5753 5752 5752 5753 5752 5752 5753 5753 5753 5753 5754 5754 5753 5753 5754 5754 5755 5755 5756 5756
5786 5784 5782 5780 5778 5775 5773 5772 5770 5767 5766 5764 5762 5760 5757 5756 5754 5752 5750 5749 5748 5747 5746 5745 5744 5744 5744 5744 5744 5744 5744 5744 5744 5745 5745 5745 5745 5746 5746 5747 5747 5747 5748
5780 5778 5776 5774 5772 5770 5767 5765 5763 5761 5759 5757 5755 5753 5751 5749 5747 5745 5743 5741 5740 5739 5738 5737 5736 5735 5735 5735 5735 5735 5735 5735 5736 5736 5736 5737 5737 5737 5738 5738 5739 5739 5739
5775 5772 5770 5768 5765 5763 5761 5759 5757 5755 5753 5751 5748 5746 5744 5742 5740 5737 5735 5733 5732 5730 5729 5728 5728 5727 5727 5726 5726 5726 5726 5726 5727 5727 5728 5728 5728 5729 5729 5730 5730 5730 5731
5769 5767 5764 5762 5760 5757 5755 5753 5750 5748 5746 5744 5741 5739 5737 5735 5732 5730 5728 5726 5724 5723 5721 5720 5719 5719 5718 5717 5717 5717 5717 5718 5718 5719 5719 5720 5720 5720 5720 5721 5721 5722 5723
5763 5761 5758 5756 5754 5751 5749 5746 5744 5742 5739 5737 5734 5732 5730 5727 5725 5722 5720 5718 5717 5715 5713 5712 5711 5710 5709 5708 5708 5708 5708 5708 5709 5710 5710 5711 5711 5711 5712 5712 5712 5712 5713
5756 5754 5752 5750 5747 5745 5742 5739 5737 5734 5732 5730 5727 5725 5722 5720 5717 5715 5713 5711 5709 5707 5705 5704 5703 5701 5700 5700 5699 5699 5699 5700 5700 5701 5701 5701 5701 5701 5701 5702 5702 5703 5703
5751 5748 5746 5743 5741 5738 5735 5732 5730 5727 5725 5722 5719 5717 5715 5712 5710 5707 5705 5703 5701 5699 5697 5695 5694 5693 5692 5691 5691 5691 5691 5691 5691 5691 5691 5691 5691 5692 5692 5692 5692 5693 5694
5745 5742 5740 5737 5734 5731 5728 5726 5723 5720 5717 5714 5711 5709 5707 5704 5702 5700 5697 5695 5693 5691 5689 5687 5686 5685 5684 5683 5682 5682 5682 5682 5682 5682 5682 5682 5682 5682 5682 5683 5683 5684 5684
5739 5736 5734 5731 5728 5725 5722 5719 5715 5712 5709 5706 5703 5701 5699 5696 5694 5691 5689 5687 5685 5683 5681 5679 5678 5676 5675 5674 5674 5674 5674 5673 5673 5673 5673 5672 5672 5673 5673 5673 5674 5674 5675
5731 5729 5727 5724 5721 5718 5715 5712 5708 5705 5701 5698 5695 5693 5690 5688 5686 5683 5681 5678 5676 5674 5673 5671 5670 5668 5667 5666 5666 5665 5665 5664 5664 5664 5664 5663 5663 5664 5664 5664 5664 5664 5665
5724 5722 5720 5717 5715 5712 5708 5705 5701 5697 5694 5690 5688 5685 5683 5680 5678 5675 5672 5670 5668 5666 5664 5663 5661 5660 5659 5658 5658 5657 5657 5656 5655 5655 5655 5655 5654 5654 5654 5654 5654 5654 5655
5717 5715 5713 5710 5708 5705 5701 5698 5694 5691 5687 5684 5681 5678 5675 5672 5669 5667 5664 5662 5659 5657 5656 5655 5654 5653 5652 5651 5650 5649 5648 5648 5647 5647 5646 5645 5645 5645 5645 5645 5645 5645 5645
5710 5708 5705 5703 5700 5697 5694 5690 5687 5684 5680 5677 5674 5671 5668 5665 5661 5658 5656 5654 5652 5650 5648 5647 5646 5645 5644 5643 5642 5641 5640 5639 5638 5637 5637 5636 5635 5635 5635 5635 5634 5634 5635
5702 5700 5698 5695 5693 5690 5687 5683 5679 5676 5673 5670 5667 5664 5660 5657 5653 5651 5648 5646 5644 5642 5640 5639 5638 5637 5636 5635 5634 5633 5632 5631 5629 5628 5627 5626 5626 5626 5625 5624 5624 5624 5625
5694 5692 5690 5688 5685 5682 5679 5676 5673 5669 5666 5663 5659 5656 5653 5650 5646 5643 5641 5638 5636 5635 5633 5632 5630 5629 5628 5627 5625 5624 5623 5621 5620 5619 5618 5617 5616 5616 5615 5615 5615 5615 5616
5686 5684 5682 5680 5677 5675 5672 5668 5665 5662 5660 5656 5653 5649 5646 5643 5640 5637 5634 5632 5630 5628 5627 5625 5624 5622 5620 5619 5617 5615 5614 5612 5611 5610 5609 5608 5607 5607 5606 5606 5605 5606 5607
5678 5676 5674 5672 5669 5666 5664 5661 5658 5655 5653 5650 5646 5643 5640 5637 5634 5631 5628 5626 5624 5622 5620 5618 5617 5615 5613 5611 5609 5607 5605 5604 5603 5602 5601 5600 5599 5598 5597 5597 5597 5598 5599
5670 5668 5666 5663 5661 5659 5656 5654 5651 5648 5646 5643 5640 5637 5634 5631 5628 5625 5623 5620 5618 5616 5614 5612 5610 5608 5606 5604 5601 5599 5598 5597 5595 5594 5593 5592 5590 5590 5590 5590 5590 5591 5592
5661 5660 5657 5655 5653 5651 5649 5646 5644 5642 5639 5636 5634 5631 5628 5625 5622 5619 5617 5614 5612 5609 5607 5605 5603 5601 5599 5596 5594 5592 5590 5589 5588 5586 5585 5584 5583 5582 5582 5583 5583 5584 5585
5652 5651 5649 5647 5645 5643 5641 5639 5637 5635 5632 5629 5627 5624 5621 5619 5616 5613 5611 5608 5605 5603 5601 5598 5596 5594 5592 5590 5588 5586 5584 5582 5581 5579 5578 5577 5576 5576 5576 5576 5576 5577 5578
5644 5643 5641 5639 5637 5635 5633 5632 5630 5627 5625 5623 5620 5618 5615 5613 5610 5607 5605 5602 5599 5597 5595 5592 5590 5588 5585 5583 5581 5579 5577 5576 5574 5573 5572 5571 5570 5569 5569 5570 5570 5570 5571
5636 5634 5633 5631 5629 5627 5626 5624 5622 5621 5619 5616 5614 5612 5609 5607 5604 5601 5599 5596 5593 5591 5588 5586 5584 5581 5579 5577 5574 5572 5571 5569 5567 5566 5565 5565 5564 5564 5564 5564 5564 5565 5565
5627 5626 5624 5623 5621 5620 5619 5617 5615 5614 5612 5610 5608 5605 5603 5601 5598 5595 5593 5590 5588 5585 5582 5580 5578 5575 5573 5571 5569 5567 5565 5563 5562 5561 5560 5559 5559 5558 5558 5558 5558 5559 5559
5620 5618 5617 5615 5614 5613 5612 5610 5609 5607 5605 5603 5601 5599 5596 5594 5592 5589 5587 5584 5582 5579 5577 5574 5572 5570 5568 5565 5563 5561 5560 5558 5557 5556 5555 5554 5553 5553 5553 5553 5553 5553 5554
Wind_Speed
22 23 22 22 23 23 22 22 22 22 23 23 24 24 24 24 25 24 24 25 25 26 27 27 27 27 26 26 26 26 26 27 27 27 27 28 29 28 28 28 28 28 29
22 22 22 23 23 23 22 23 23 22 22 23 24 24 24 24 24 24 25 26 26 26 26 26 26 26 26 26 26 26 27 28 28 27 27 27 27 27 27 27 27 27 28
22 22 22 23 23 23 23 23 23 23 23 23 24 24 24 24 24 25 26 26 26 26 26 25 26 27 27 27 27 28 28 28 28 27 27 27 27 28 28 27 27 27 28
23 23 23 23 23 22 22 23 23 24 23 24 24 24 24 25 25 25 26 26 27 27 27 26 26 27 26 27 28 28 28 28 27 27 27 28 28 28 28 28 28 28 28
23 22 22 22 22 22 22 22 22 23 23 24 24 24 25 25 26 25 25 26 27 27 27 27 27 27 27 27 28 28 28 28 27 27 27 27 28 28 28 28 28 28 28
23 23 22 21 22 22 22 23 23 24 24 24 25 25 26 26 26 26 26 26 27 27 27 27 28 29 29 28 28 28 28 27 27 27 27 28 28 28 28 28 28 28 28
22 22 22 23 23 23 23 24 25 25 25 25 25 26 26 26 26 26 26 26 26 26 26 27 28 29 29 29 29 28 28 28 28 27 27 28 28 28 28 29 29 29 28
22 23 23 24 24 24 25 25 25 26 25 26 26 26 26 26 26 25 26 26 26 25 26 27 27 27 28 28 28 28 28 28 28 28 28 27 28 28 29 30 29 29 29
22 23 23 24 25 24 24 25 25 26 26 27 28 27 27 26 26 26 26 26 26 26 26 26 26 26 26 27 28 28 28 28 28 28 29 28 28 29 29 30 30 30 29
22 23 24 24 24 24 25 26 26 27 27 27 27 27 27 26 26 26 26 27 27 27 26 25 26 26 25 26 26 27 27 28 28 28 29 29 29 29 29 29 29 29 28
24 24 24 24 24 25 26 26 27 27 27 27 26 26 27 27 26 26 27 27 27 26 25 25 25 26 26 26 26 26 26 27 27 28 28 28 29 29 29 28 28 28 29
25 25 24 24 24 25 26 27 27 27 27 27 26 26 26 26 26 26 26 27 27 26 25 25 25 25 25 25 25 25 26 27 27 27 27 28 28 28 29 29 29 28 28
25 25 25 24 25 25 26 27 27 26 26 26 26 26 26 26 26 26 26 26 27 26 25 24 23 23 24 24 24 24 25 26 27 27 26 26 27 28 29 30 30 29 29
25 26 25 25 26 26 26 27 26 26 25 25 25 25 25 25 25 26 26 26 26 26 25 24 23 23 23 23 23 24 25 26 26 27 26 26 26 26 27 28 29 30 29
26 26 26 26 26 26 26 26 26 26 26 25 25 25 25 25 26 26 25 25 25 25 24 23 23 23 23 24 24 24 25 26 26 27 28 27 27 27 28 28 28 28 28
25 26 26 26 26 26 26 26 26 26 26 25 25 25 26 26 26 25 25 24 24 24 23 23 23 24 24 25 25 25 26 27 27 27 27 27 27 28 28 28 28 28 28
26 26 26 26 26 27 27 26 25 25 24 25 26 26 26 25 25 24 24 23 23 22 22 22 22 23 24 25 25 26 26 26 26 26 27 27 27 28 28 28 28 27 27
27 26 26 26 27 27 27 26 25 24 24 24 24 24 24 24 24 24 23 23 22 21 22 22 22 23 23 24 25 25 25 25 25 26 26 26 27 26 26 26 25 25 25
27 26 26 26 26 26 26 25 25 24 24 23 23 23 23 23 23 22 21 21 21 21 21 22 22 23 24 24 24 24 24 25 25 25 25 26 26 25 25 24 23 23 24
26 26 26 26 26 26 25 25 24 24 23 23 23 22 23 23 22 21 20 21 21 21 21 22 22 22 23 24 24 24 24 23 23 24 24 23 23 23 23 23 22 22 22
26 27 27 27 27 26 26 25 24 24 24 24 23 23 23 22 21 21 21 21 21 21 22 22 22 23 23 23 23 22 22 21 21 21 21 21 21 21 20 20 20 22 22
26 27 27 27 26 25 25 24 24 24 24 23 22 22 22 21 21 21 21 21 21 21 22 21 22 23 23 23 21 21 20 20 20 19 19 19 19 19 20 20 20 20 21
26 26 26 26 26 25 24 24 24 23 23 22 22 21 21 21 21 21 21 21 21 21 21 21 22 22 22 22 22 21 21 20 19 19 19 19 18 18 19 19 20 19 19
25 25 25 25 25 25 24 23 23 23 22 21 21 21 21 21 21 21 21 21 21 21 21 21 21 21 21 21 21 20 19 19 19 18 18 17 17 17 17 18 18 18 18
24 24 23 23 23 23 23 23 22 22 22 22 22 22 21 21 21 21 21 21 21 22 21 21 20 20 19 19 19 18 18 17 17 17 16 16 16 16 17 17 17 18 18
22 22 22 22 22 22 22 22 22 22 22 22 22 22 21 21 21 21 21 21 21 20 20 20 20 20 20 20 19 18 17 15 16 16 16 17 17 17 17 17 17 18 18
Wind_Direction
294 292 293 294 295 292 289 289 290 290 288 287 287 286 284 283 281 280 279 279 278 276 273 273 272 269 268 269 268 266 266 266 265 265 264 264 263 261 260 260 261 259 258
294 293 294 295 295 293 290 290 291 291 288 286 286 286 285 284 282 281 281 279 280 277 275 274 271 270 270 269 267 266 267 268 267 266 264 264 262 260 260 260 261 261 260
295 295 295 296 295 293 291 290 291 291 288 287 287 286 285 287 285 284 283 280 279 276 275 273 271 271 271 269 268 267 267 267 267 265 263 261 261 260 260 261 261 261 260
295 295 295 295 294 293 292 289 290 290 289 288 286 285 286 288 287 285 284 281 278 276 276 273 271 271 271 270 269 268 267 266 265 264 261 261 261 260 261 261 261 260 259
295 296 295 294 295 295 292 291 292 291 289 288 287 287 287 288 287 286 284 281 278 277 276 274 273 272 270 270 269 268 266 265 264 263 261 262 262 262 262 261 259 259 259
293 294 294 295 295 294 293 293 293 293 292 291 290 289 289 288 289 288 286 284 281 278 277 274 274 273 271 270 269 268 266 266 265 264 263 264 263 261 261 261 260 259 260
294 294 294 295 295 294 293 292 293 294 292 291 292 291 291 291 291 288 287 286 284 282 279 276 274 273 271 270 269 267 266 267 267 265 265 264 261 260 260 260 260 260 261
295 294 294 294 295 294 294 293 294 293 293 293 293 292 292 292 291 289 288 286 285 284 282 280 277 275 272 270 268 266 266 267 267 266 266 264 262 260 261 261 260 260 261
294 294 295 297 296 297 297 297 297 295 294 293 292 292 292 291 291 290 290 289 287 286 285 281 278 275 274 271 269 267 266 266 267 267 266 264 263 263 262 262 262 262 262
297 299 300 300 299 300 299 298 298 298 296 294 291 292 293 292 291 290 289 289 288 287 285 282 279 277 275 273 271 268 267 266 266 266 266 265 264 262 262 263 262 261 261
295 297 298 299 299 299 299 299 299 298 297 296 294 293 293 293 292 292 290 289 289 288 284 282 280 277 275 273 271 269 269 269 268 267 267 266 265 263 262 264 263 262 262
293 294 296 296 297 298 299 300 301 300 298 297 295 294 293 293 293 291 291 290 289 288 285 282 280 278 275 274 272 270 270 270 269 268 267 267 265 264 263 264 264 265 264
292 293 294 295 297 298 299 301 302 302 301 299 296 295 295 294 294 292 291 291 289 286 284 283 281 278 275 275 273 272 271 270 270 268 268 268 267 265 264 263 264 265 264
291 292 293 295 297 297 298 299 301 302 302 300 297 297 297 296 297 296 293 290 289 286 284 282 280 279 278 278 275 273 272 271 270 269 268 268 267 266 265 265 264 264 262
291 291 293 296 297 298 298 300 300 301 301 300 299 300 300 299 299 298 296 293 290 288 286 283 279 279 279 279 278 276 274 274 274 272 270 270 269 268 267 266 265 264 261
291 293 294 296 297 297 298 300 300 300 299 298 299 301 301 301 301 299 296 294 291 288 286 284 281 281 281 281 280 277 276 276 276 275 273 271 269 269 269 267 265 263 260
291 292 293 295 296 296 298 300 300 299 298 299 301 301 301 302 302 300 297 295 294 291 289 286 283 283 283 284 282 280 279 277 277 275 273 272 271 270 268 266 263 261 258
290 291 292 294 296 296 296 298 298 297 298 300 301 302 303 303 302 300 297 296 295 292 290 288 287 287 287 287 285 283 281 279 277 276 276 275 275 273 271 268 264 260 257
289 290 292 294 295 296 296 297 298 298 299 300 300 301 303 303 301 298 296 295 294 292 291 289 289 290 288 288 287 284 282 280 279 278 278 276 275 272 269 266 263 260 257
288 291 291 292 294 295 295 296 297 298 298 300 300 302 303 305 303 300 298 297 295 293 292 291 292 291 291 291 289 286 283 282 280 279 278 277 273 270 268 265 261 259 256
286 289 290 290 292 293 293 294 297 298 298 298 299 301 302 303 302 300 298 297 295 294 294 294 293 292 292 292 290 287 284 282 280 278 277 276 273 269 267 263 259 258 256
287 288 288 289 292 292 292 293 295 297 299 298 298 298 299 300 301 302 300 298 296 294 296 296 295 295 295 294 292 288 285 284 282 279 278 276 273 267 265 263 262 260 257
288 288 288 288 290 290 291 291 293 295 297 296 296 297 297 297 298 300 300 298 296 294 295 296 297 297 297 294 292 289 286 284 282 279 276 275 272 268 266 263 261 259 256
287 288 287 288 288 288 289 290 291 293 295 297 297 297 298 298 298 299 299 298 296 296 296 296 297 297 297 296 294 290 286 283 281 277 273 273 271 269 266 262 259 256 256
287 286 286 286 286 286 288 291 291 292 293 296 297 297 298 298 299 299 298 297 297 297 297 297 297 297 296 297 296 293 289 284 280 276 274 272 270 268 266 264 260 259 258
287 288 287 286 286 287 289 291 291 292 293 295 296 296 297 299 299 299 299 298 299 299 297 296 297 298 297 297 296 293 290 285 282 281 278 273 269 268 268 266 262 260 259